This is the latest recevied weather packets stored in our database for station/object IZ7XUV. If no packets are shown the sender has not sent any weather packets the latest 10 day(s).
| Time | Temp. | Humidity | Pressure | Rain* | Wind** | Luminosity | Snow |
|---|---|---|---|---|---|---|---|
| 1778241068 | 14.44° C | 90% | 1013.9 hPa | 1.02 mm | - | 182 W/m² | - |
| 1778239848 | 15° C | 91% | 1013.9 hPa | 1.02 mm | - | 106 W/m² | - |
| 1778235639 | 15° C | 92% | 1014 hPa | 1.27 mm | - | 49 W/m² | - |
| 1778235050 | 15.56° C | 93% | 1013.8 hPa | 1.27 mm | - | 55 W/m² | - |
| 1778234419 | 15.56° C | 92% | 1013.8 hPa | 1.02 mm | - | 74 W/m² | - |
| 1778231431 | 15.56° C | 92% | 1013.9 hPa | 1.52 mm | - | 161 W/m² | - |
| 1778228442 | 15.56° C | 91% | 1013.6 hPa | 2.54 mm | - | 122 W/m² | - |
| 1778227221 | 15.56° C | 90% | 1013.6 hPa | 2.29 mm | - | 81 W/m² | - |
| 1778226672 | 16.11° C | 89% | 1013.5 hPa | 2.03 mm | - | 84 W/m² | - |
| 1778225472 | 15.56° C | 88% | 1013.6 hPa | 1.27 mm | - | 63 W/m² | - |
| 1778224843 | 15.56° C | 88% | 1013.4 hPa | 1.02 mm | - | 68 W/m² | - |
| 1778223073 | 16.11° C | 86% | 1013.3 hPa | 0.51 mm | - | 51 W/m² | - |
| 1778219474 | 16.11° C | 79% | 1012.9 hPa | 0 mm | - | 48 W/m² | - |
| 1778218864 | 16.11° C | 78% | 1012.9 hPa | 0 mm | - | 45 W/m² | - |
| 1778218254 | 16.11° C | 78% | 1012.9 hPa | 0 mm | - | 42 W/m² | - |
| 1778216424 | 15° C | 78% | 1012.8 hPa | 0 mm | - | 24 W/m² | - |
| 1778211666 | 15° C | 72% | 1012.7 hPa | 0 mm | - | 1 W/m² | - |
| 1778210446 | 15° C | 71% | 1012.7 hPa | 0 mm | - | 0 W/m² | - |
| 1778209836 | 14.44° C | 70% | 1012.8 hPa | 0 mm | - | 0 W/m² | - |
| 1778205037 | 15° C | 67% | 1013.2 hPa | 0 mm | - | 0 W/m² | - |
| 1778201419 | 16.11° C | 59% | 1013.6 hPa | 0 mm | - | 0 W/m² | - |
| 1778194830 | 16.11° C | 58% | 1014.7 hPa | 0 mm | - | 0 W/m² | - |
| 1778190072 | 16.11° C | 60% | 1014.7 hPa | 0 mm | - | 0 W/m² | - |
| 1778187022 | 17.22° C | 53% | 1014.9 hPa | 0 mm | - | 0 W/m² | - |
| 1778182264 | 17.78° C | 52% | 1015.2 hPa | 0 mm | - | 0 W/m² | - |
* Rain latest hour (hover to see other rain measurements)
** Current wind speed in m/s (hover to see current wind gust speed)